{"data":{"norad_id":53060,"epoch":"2026-05-25T01:23:16.065312Z","epoch_age_seconds":78860,"freshness":"FRESH","line1":"1 53060U 22077T   26145.05782483  .00011696  00000+0  81472-3 0  9994","line2":"2 53060  97.4464 324.9292 0000469 105.1520 254.9759 15.05588153212393","mean_motion":15.05588153,"eccentricity":4.69e-5,"inclination_deg":97.4464,"raan_deg":324.9292,"arg_perigee_deg":105.152,"mean_anomaly_deg":254.9759,"bstar":0.00081472,"rev_number":21239,"period_min":95.643685634128,"perigee_km":549.375954478,"apogee_km":550.02578567021,"semimajor_km":6927.8378700741,"source":"CELESTRAK","updated_at":"2026-05-25T13:38:17.289371Z"}}